• MPC Preparation (Info)

  • MPEC 2016-O03 : 2014 NX65

    The following Minor Planet Electronic Circular may be linked-to from your own Web pages, but must not otherwise be redistributed electronically.

    A form allowing access to any MPEC is at the bottom of this page.


    Read MPEC 2016-O02 Read MPEC 2016-O04


    M.P.E.C. 2016-O03                                Issued 2016 July 16, 00:06 UT
    
         The Minor Planet Electronic Circulars contain information on unusual
             minor planets and routine data on comets.  They are published
        on behalf of Division F of the International Astronomical Union by the
              Minor Planet Center, Smithsonian Astrophysical Observatory,
                              Cambridge, MA 02138, U.S.A.
    
                 Prepared using the Tamkin Foundation Computer Network
    
                                  MPC@CFA.HARVARD.EDU
                URL https://www.minorplanetcenter.net/    ISSN 1523-6714
    
                                       2014 NX65
    
    Observations:
         K14N65X  C2011 07 27.47037 21 46 48.681-22 17 28.54         22.0 wLEO003F51
         K14N65X  C2011 07 27.48506 21 46 48.535-22 17 29.35         22.0 wLEO003F51
         K14N65X  C2011 07 27.49976 21 46 48.401-22 17 30.27         21.9 wLEO003F51
         K14N65X  C2011 07 27.51446 21 46 48.263-22 17 31.19         22.0 wLEO003F51
         K14N65X  C2013 10 06.31251 22 20 04.035-20 49 52.25         22.3 wLEO003F51
         K14N65X  C2013 10 06.32676 22 20 03.936-20 49 52.76         22.3 wLEO003F51
         K14N65X  C2013 10 06.34100 22 20 03.835-20 49 53.26         22.4 wLEO003F51
         K14N65X  C2013 10 06.35526 22 20 03.717-20 49 53.44         22.2 wLEO003F51
         K14N65X* C2014 07 08.53732 22 53 28.702-18 01 31.92         22.3 wLEO003F51
         K14N65X  C2014 07 08.54912 22 53 28.653-18 01 32.60         22.2 wLEO003F51
         K14N65X  C2014 07 08.56093 22 53 28.610-18 01 33.35         22.3 wLEO003F51
         K14N65X  C2014 07 08.57273 22 53 28.565-18 01 33.79         22.1 wLEO003F51
         K14N65X  C2014 07 29.50410 22 51 32.624-18 23 36.90         22.4 wLEO003F51
         K14N65X  C2014 07 29.52701 22 51 32.466-18 23 38.54         22.5 wLEO003F51
         K14N65X  C2014 07 29.53847 22 51 32.365-18 23 39.27         22.4 wLEO003F51
         K14N65X  C2014 07 30.52695 22 51 25.221-18 24 46.36         22.5 wLEO003F51
         K14N65X  C2014 07 30.53821 22 51 25.145-18 24 47.22         22.2 wLEO003F51
         K14N65X  C2014 07 30.54945 22 51 25.057-18 24 47.83         22.2 wLEO003F51
         K14N65X  C2014 07 30.56067 22 51 24.966-18 24 48.74         22.2 wLEO003F51
         K14N65X  C2014 08 28.36978 22 47 14.043-18 57 03.73         22.1 wLEO003F51
         K14N65X  C2014 08 28.38031 22 47 13.931-18 57 04.32         22.1 wLEO003F51
         K14N65X  C2014 08 28.39085 22 47 13.840-18 57 04.87         21.9 wLEO003F51
         K14N65X  C2014 08 28.40139 22 47 13.727-18 57 05.48         22.1 wLEO003F51
         K14N65X  C2014 09 18.38454 22 43 53.575-19 16 14.94         22.2 wLEO003F51
         K14N65X  C2014 09 18.39572 22 43 53.481-19 16 15.70         22.4 wLEO003F51
         K14N65X  C2014 09 18.40692 22 43 53.371-19 16 16.07         22.1 wLEO003F51
         K14N65X  C2014 09 18.41810 22 43 53.262-19 16 16.74         22.1 wLEO003F51
         K14N65X  C2015 07 24.52821 23 12 45.069-16 41 52.99         22.2 wLEO003F51
         K14N65X  C2015 07 24.54070 23 12 44.997-16 41 53.69         22.2 wLEO003F51
         K14N65X  C2015 07 24.55317 23 12 44.943-16 41 54.61         22.6 wLEO003F51
         K14N65X  C2015 07 24.56560 23 12 44.852-16 41 55.31         22.6 wLEO003F51
    
    Observer details:
    F51 Pan-STARRS 1, Haleakala.  Observers B. Gibson, T. Goggia, N. Primak,
        A. Schultz, M. Willman.  Measurers K. Chambers, S. Chastel, Y.-T. Chen,
        L. Denneau, H. Flewelling, M. Holman, M. Huber, R. Jedicke, M. Lackner,
        E. Lilly, H.-W. Lin, E. Magnier, M. Micheli, M. Payne, P. Veres,
        R. Wainscoat, C. Waters, R. Weryk.  1.8-m Ritchey-Chretien + CCD.
    
    Orbital elements:
    2014 NX65
    Epoch 2016 July 31.0 TT = JDT 2457600.5                 MPC
    M  12.62759              (2000.0)            P               Q
    n   0.00903234     Peri.  230.45730     +0.82304082     +0.53306909
    a  22.8350824      Node    96.48339     -0.44153465     +0.81762273
    e   0.1946824      Incl.   11.38064     -0.35728274     +0.21755557
    P 109.12           H    9.4           G   0.15           U   1
    Residuals in seconds of arc
    110727 F51  0.1+  0.0     140708 F51  0.0   0.2+    140828 F51  0.0   0.2+
    110727 F51  0.0   0.1+    140729 F51  0.0   0.1+    140918 F51  0.0   0.2+
    110727 F51  0.0   0.1+    140729 F51  0.2+  0.0     140918 F51  0.2+  0.1-
    110727 F51  0.0   0.1+    140729 F51  0.1-  0.1+    140918 F51  0.1+  0.1+
    131006 F51  0.1+  0.1+    140730 F51  0.1-  0.0     140918 F51  0.0   0.1-
    131006 F51  0.1+  0.2-    140730 F51  0.0   0.1-    150724 F51  0.1-  0.1-
    131006 F51  0.0   0.4-    140730 F51  0.0   0.0     150724 F51  0.1-  0.0
    131006 F51  0.3-  0.4-    140730 F51  0.1-  0.1-    150724 F51  0.2+  0.1-
    140708 F51  0.0   0.1+    140828 F51  0.1+  0.0     150724 F51  0.1-  0.0
    140708 F51  0.1-  0.0     140828 F51  0.1-  0.1+
    140708 F51  0.0   0.0     140828 F51  0.1+  0.2+
    
    Ephemeris:
    2014 NX65                a,e,i = 22.84, 0.19, 11                 q = 18.389
    Date    TT    R. A. (2000) Decl.     Delta      r     Elong.  Phase     V
    2016 06 16    23 33 25.0 -14 31 21  18.3953 18.5436    96.8     3.1    22.4
    ...
    2016 07 01    23 33 43.5 -14 39 39  18.1608 18.5470   110.9     2.9    22.3
    ...
    2016 07 09    23 33 35.0 -14 45 47  18.0440 18.5489   118.4     2.8    22.3
    ...
    2016 07 15    23 33 20.6 -14 51 04  17.9621 18.5502   124.0     2.6    22.3
    2016 07 16    23 33 17.6 -14 52 00  17.9490 18.5505   125.0     2.6    22.3
    2016 07 17    23 33 14.3 -14 52 57  17.9361 18.5507   125.9     2.5    22.3
    ...
    2016 07 23    23 32 51.2 -14 58 52  17.8621 18.5521   131.6     2.3    22.3
    ...
    2016 07 31    23 32 10.7 -15 07 23  17.7744 18.5539   139.1     2.1    22.2
    ...
    2016 08 15    23 30 29.0 -15 24 31  17.6493 18.5574   153.0     1.4    22.2
    
    A. U. Tomatic                (C) Copyright 2016 MPC           M.P.E.C. 2016-O03
    

    Read MPEC 2016-O02 Read MPEC 2016-O04


    MPEC number:

    Enter an MPEC number in one of the following forms:

    • 1997-B01 (the full form)
    • J97B01 (the packed version of the full form)
    • B01 (the abbreviated form)